Swanton, OH

9:15 AM EST on February 23, 2017 (GMT -0500)
Toledo Express

Weather History for KTOL - July, 2013

Change the Weather History Date:

Tuesday, July 2, 2013

  Actual Average Record
Temperature  
Mean Temperature 66 °F 73 °F  
Max Temperature 71 °F 85 °F 98 °F (2011)
Min Temperature 60 °F 62 °F 46 °F (1988)
Degree Days  
Heating Degree Days 0 0  
Month to date heating degree days 1 0  
Since 1 June heating degree days 32 35  
Since 1 July heating degree days 1 0  
Cooling Degree Days 1 8  
Month to date cooling degree days 1 16  
Year to date cooling degree days 257 239  
Since 1 June cooling degree days 163 186  
Growing Degree Days 16 (Base 50)    
Moisture  
Dew Point 61 °F    
Average Humidity 83    
Maximum Humidity 93    
Minimum Humidity 73    
Precipitation  
Precipitation 0.03 in 0.10 in 2.08 in (2008)
Month to date precipitation 0.11 0.21  
Year to date precipitation 20.96 17.15  
Snow  
Snow 0.00 in 0.00 in - ()
Month to date snowfall 0.0 0.0  
Since 1 June snowfall 0.0 0.0  
Since 1 July snowfall 0.0 0.0  
Snow Depth 0.00 in    
Sea Level Pressure  
Sea Level Pressure 30.03 in    
Wind  
Wind Speed 9 mph (NE)    
Max Wind Speed 15 mph    
Max Gust Speed 18 mph    
Visibility 8 miles    
Events Rain    
T = Trace of Precipitation, MM = Missing Value Source: NWS Daily Summary

Daily Weather History Graph

Daily Weather History Graph

Search for Another Location

Airport or City:

Trip Planner

Search our weather history database for the weather conditions in past years. The results will help you decide how hot, cold, wet, or windy it might be!

Date:

Astronomy

Jul. 02, 2013 Rise Set
Actual Time 6:05 AM EDT 9:13 PM EDT
Civil Twilight 5:31 AM EDT 9:46 PM EDT
Nautical Twilight 4:48 AM EDT 10:30 PM EDT
Astronomical Twilight 3:56 AM EDT 11:21 PM EDT
Moon 2:09 AM EDT (7/2) 4:24 PM EDT (7/2)
Length of Visible Light 16h 15m
Length of Day
15h 07m
Waning Crescent, 26% of the Moon is Illuminated
Jul 2
Waning Crescent
Jul 8
New
Jul 15
First Quarter
Jul 22
Full
Jul 29
Last Quarter

Hourly Weather History & Observations

Time (EDT) Temp. Dew Point Humidity Pressure Visibility Wind Dir Wind Speed Gust Speed Precip Events Conditions
12:03 AM 62.6 °F 55.4 °F 77% 30.01 in 10.0 mi NNE 10.4 mph - N/A   Overcast
12:52 AM 62.1 °F 55.9 °F 80% 30.02 in 10.0 mi NNE 8.1 mph - N/A   Overcast
1:52 AM 62.1 °F 55.9 °F 80% 30.01 in 10.0 mi NNE 11.5 mph - N/A   Overcast
2:52 AM 61.0 °F 57.0 °F 87% 30.00 in 8.0 mi NNE 9.2 mph - 0.02 in Rain Light Rain
3:52 AM 60.1 °F 57.0 °F 90% 29.99 in 10.0 mi NE 8.1 mph - 0.00 in   Overcast
4:52 AM 61.0 °F 57.9 °F 90% 29.99 in 10.0 mi NNE 5.8 mph - N/A   Overcast
5:49 AM 60.8 °F 57.2 °F 88% 30.01 in 10.0 mi North 4.6 mph - N/A   Overcast
5:52 AM 61.0 °F 57.9 °F 90% 30.01 in 10.0 mi NNE 4.6 mph - N/A   Overcast
6:52 AM 61.0 °F 57.9 °F 90% 30.00 in 10.0 mi NNE 8.1 mph - N/A   Overcast
7:52 AM 62.1 °F 59.0 °F 90% 30.02 in 7.0 mi NNE 8.1 mph - N/A   Overcast
8:23 AM 62.6 °F 60.8 °F 94% 30.03 in 2.5 mi NNE 10.4 mph - N/A   Overcast
8:32 AM 62.6 °F 60.8 °F 94% 30.03 in 1.8 mi NNE 9.2 mph - N/A   Overcast
8:45 AM 62.6 °F 60.8 °F 94% 30.02 in 1.2 mi NNE 9.2 mph - 0.00 in Rain Light Rain
8:52 AM 62.1 °F 60.1 °F 93% 30.03 in 1.2 mi NE 9.2 mph - 0.00 in Rain Light Rain
10:04 AM 62.6 °F 60.8 °F 94% 30.04 in 2.0 mi NE 8.1 mph - N/A   Overcast
10:44 AM 62.6 °F 60.8 °F 94% 30.04 in 3.0 mi NE 9.2 mph - N/A   Overcast
10:52 AM 63.0 °F 61.0 °F 93% 30.04 in 4.0 mi ENE 10.4 mph - N/A   Overcast
11:52 AM 64.9 °F 61.0 °F 87% 30.05 in 8.0 mi North - - N/A   Overcast
12:52 PM 64.9 °F 61.0 °F 87% 30.05 in 10.0 mi ENE 10.4 mph - N/A   Overcast
1:52 PM 64.9 °F 61.0 °F 87% 30.05 in 10.0 mi ENE 12.7 mph - N/A   Overcast
2:52 PM 66.0 °F 62.1 °F 87% 30.05 in 9.0 mi ENE 10.4 mph - N/A   Overcast
3:40 PM 66.2 °F 62.6 °F 88% 30.05 in 8.0 mi East 12.7 mph - N/A   Overcast
3:52 PM 68.0 °F 62.1 °F 81% 30.04 in 9.0 mi ENE 12.7 mph - N/A   Overcast
4:52 PM 70.0 °F 63.0 °F 78% 30.03 in 10.0 mi ENE 10.4 mph - N/A   Overcast
5:09 PM 69.8 °F 62.6 °F 78% 30.03 in 10.0 mi ENE 9.2 mph - N/A   Overcast
5:52 PM 71.1 °F 63.0 °F 75% 30.01 in 10.0 mi ENE 13.8 mph - N/A   Mostly Cloudy
6:52 PM 68.0 °F 62.1 °F 81% 30.02 in 10.0 mi ENE 10.4 mph - N/A   Overcast
7:22 PM 69.8 °F 62.6 °F 78% 30.04 in 10.0 mi ENE 10.4 mph - N/A   Scattered Clouds
7:52 PM 68.0 °F 62.1 °F 81% 30.04 in 10.0 mi East 9.2 mph - N/A   Partly Cloudy
8:52 PM 66.9 °F 63.0 °F 87% 30.03 in 10.0 mi East 6.9 mph - 0.00 in   Mostly Cloudy
9:45 PM 66.2 °F 62.6 °F 88% 30.03 in 9.0 mi ENE 3.5 mph - N/A   Partly Cloudy
9:52 PM 64.9 °F 63.0 °F 93% 30.04 in 9.0 mi East 4.6 mph - N/A   Partly Cloudy
10:22 PM 66.2 °F 62.6 °F 88% 30.06 in 8.0 mi East 6.9 mph - N/A   Mostly Cloudy
10:49 PM 64.4 °F 62.6 °F 94% 30.07 in 8.0 mi ENE 6.9 mph - N/A   Scattered Clouds
10:52 PM 64.9 °F 63.0 °F 93% 30.06 in 8.0 mi NE 5.8 mph - N/A   Scattered Clouds
11:52 PM 64.9 °F 63.0 °F 93% 30.06 in 6.0 mi East 4.6 mph - N/A   Mostly Cloudy